Home   Weather   Gross-Gerau   Past weeks

Flag for Germany Past Weather in Gross-Gerau, Hesse, Germany — Yesterday and Last 2 Weeks

Now
66 °F

Passing clouds.


Feels Like: 66 °F
Forecast: 53 / 70 °F
Wind: 7 mph from North

Location: Frankfurt-M-Flughafen Airport

Current Time: Sep 26, 2016 at 9:05:40 PM

Latest Report: Sep 26, 2016 at 8:20 PM


Visibility: N/A

Pressure: 30.18 "Hg

Humidity: 64%

Dew Point: 54 °F

Location of Gross-GerauLocation

Past Weather in Gross-Gerau — Graph

°F

Gross-Gerau Temperature Yesterday

Maximum temperature yesterday: 77 °F (at 4:20 PM)
Minimum temperature yesterday: 48 °F (at 7:20 AM)
Average temperature yesterday: 62 °F

High & Low Weather Summary for the Past Weeks

 TemperatureHumidityPressure
High91 °F (Sep 13, 4:20 PM)100% (Sep 17, 6:20 AM)30.33 "Hg (Sep 17, 6:20 AM)
Low46 °F (Sep 21, 7:20 AM)26% (Sep 13, 6:20 PM)29.83 "Hg (Sep 15, 3:50 AM)
Average65 °F67%30.05 "Hg
* Reported Sep 11 7:20 PM — Sep 26 7:50 PM, Gross-Gerau, Weather by CustomWeather, © 2016

Note: Actual official high and low records may vary slightly from our data, if they occured in-between our weather recording intervals... More about our weather records

Advertising

Gross-Gerau Weather History for the Previous 24 Hours

Scroll right to see more
 ConditionsComfort  
Time TempWeatherWind HumidityBarometerVisibility
7:50 PM
Mon, Sep 26
66 °FPassing clouds.7 mph64%30.18 "HgN/A
7:20 PM68 °FPartly cloudy.6 mph60%30.18 "HgN/A
6:50 PM68 °FPartly sunny.9 mph56%30.18 "HgN/A
6:20 PM68 °FPartly sunny.9 mph56%30.18 "HgN/A
5:50 PM70 °FPartly sunny.10 mph53%30.15 "HgN/A
5:20 PM70 °FPartly sunny.8 mph53%30.15 "HgN/A
4:50 PM70 °FBroken clouds.7 mph57%30.18 "HgN/A
4:20 PM70 °FScattered clouds.6 mph57%30.18 "HgN/A
3:50 PM72 °FScattered clouds.6 mph53%30.18 "HgN/A
3:20 PM68 °FBroken clouds.5 mph56%30.18 "HgN/A
2:50 PM70 °FPartly sunny.3 mph53%30.18 "HgN/A
2:20 PM68 °FBroken clouds.3 mph56%30.18 "HgN/A
1:50 PM68 °FBroken clouds.7 mph56%30.18 "HgN/A
1:20 PM68 °FScattered clouds.5 mph56%30.18 "HgN/A
12:50 PM66 °FScattered clouds.6 mph60%30.18 "HgN/A
12:20 PM66 °FBroken clouds.6 mph60%30.21 "HgN/A
11:50 AM64 °FBroken clouds.7 mph64%30.21 "HgN/A
11:20 AM64 °FBroken clouds.5 mph64%30.21 "HgN/A
10:50 AM64 °FBroken clouds.5 mph68%30.21 "HgN/A
10:20 AM63 °FBroken clouds.6 mph68%30.21 "HgN/A
9:50 AM63 °FPartly sunny.5 mph68%30.21 "HgN/A
9:20 AM61 °FPartly sunny.5 mph72%30.21 "HgN/A
8:50 AM61 °FPartly sunny.6 mph72%30.18 "HgN/A
8:20 AM59 °FScattered clouds.8 mph77%30.18 "HgN/A
7:50 AM57 °FScattered clouds.8 mph82%30.18 "HgN/A
7:20 AM59 °FScattered clouds.7 mph77%30.18 "HgN/A
6:50 AM59 °FPartly cloudy.8 mph72%30.18 "HgN/A
6:20 AM59 °FPassing clouds.9 mph72%30.18 "HgN/A
5:50 AM59 °FPassing clouds.10 mph77%30.18 "HgN/A
5:20 AM61 °FPassing clouds.13 mph72%30.15 "HgN/A
4:50 AM61 °FPartly cloudy.10 mph72%30.15 "HgN/A
4:20 AM59 °FPassing clouds.8 mph77%30.15 "HgN/A
3:50 AM61 °FPassing clouds.8 mph72%30.15 "HgN/A
3:20 AM59 °FPassing clouds.13 mph82%30.15 "HgN/A
2:50 AM61 °FClear.8 mph77%30.15 "Hg10 mi
2:20 AM63 °FPassing clouds.8 mph77%30.15 "HgN/A
1:50 AM63 °FClear.12 mph77%30.15 "Hg10 mi
1:20 AM64 °FPassing clouds.10 mph73%30.12 "HgN/A
12:50 AM64 °FClear.9 mph73%30.12 "Hg10 mi
12:20 AM64 °FClear.8 mph73%30.12 "Hg10 mi
11:50 PM
Sun, Sep 25
59 °FClear.5 mph88%30.12 "Hg10 mi
11:20 PM57 °FClear.3 mph94%30.09 "Hg10 mi
10:50 PM57 °FPassing clouds.3 mph88%30.09 "HgN/A
10:20 PM59 °FPassing clouds.5 mph88%30.09 "HgN/A
9:50 PM61 °FClear.2 mph83%30.09 "Hg10 mi
9:20 PM61 °FClear.1 mph83%30.09 "Hg10 mi
Weather by CustomWeather, © 2016

See weather overviewHow to use our weather pages